This is the latest recevied weather packets stored in our database for station/object N4QD-13. If no packets are shown the sender has not sent any weather packets the latest 10 day(s).
| Time | Temp. | Humidity | Pressure | Rain* | Wind** | Luminosity | Snow |
|---|---|---|---|---|---|---|---|
| 1777670822 | 18.33° C | 44% | 1011 hPa | 0 mm | - | 82 W/m² | - |
| 1777670519 | 18.89° C | 44% | 1010.6 hPa | 0 mm | - | 129 W/m² | - |
| 1777670215 | 18.89° C | 43% | 1010.6 hPa | 0 mm | - | 404 W/m² | - |
| 1777669913 | 18.89° C | 44% | 1010.6 hPa | 0 mm | - | 231 W/m² | - |
| 1777669610 | 18.33° C | 44% | 1010.7 hPa | 0 mm | - | 258 W/m² | - |
| 1777669307 | 18.33° C | 44% | 1010.9 hPa | 0 mm | - | 164 W/m² | - |
| 1777669002 | 18.33° C | 43% | 1010.8 hPa | 0 mm | - | 105 W/m² | - |
| 1777668700 | 18.33° C | 44% | 1010.5 hPa | 0 mm | - | 143 W/m² | - |
| 1777668397 | 19.44° C | 43% | 1010.6 hPa | 0 mm | - | 155 W/m² | - |
| 1777668092 | 20° C | 42% | 1010.8 hPa | 0 mm | - | 592 W/m² | - |
| 1777667790 | 19.44° C | 42% | 1010.9 hPa | 0 mm | - | 607 W/m² | - |
| 1777667487 | 20° C | 43% | 1011 hPa | 0 mm | - | 633 W/m² | - |
| 1777667184 | 19.44° C | 42% | 1011.1 hPa | 0 mm | - | 652 W/m² | - |
| 1777666881 | 19.44° C | 43% | 1011.1 hPa | 0 mm | - | 673 W/m² | - |
| 1777666578 | 19.44° C | 42% | 1011.3 hPa | 0 mm | - | 731 W/m² | - |
| 1777666274 | 19.44° C | 43% | 1011.3 hPa | 0 mm | - | 708 W/m² | - |
| 1777665971 | 19.44° C | 42% | 1011.4 hPa | 0 mm | - | 707 W/m² | - |
| 1777665669 | 19.44° C | 44% | 1011.6 hPa | 0 mm | - | 770 W/m² | - |
| 1777665366 | 19.44° C | 42% | 1011.5 hPa | 0 mm | - | 764 W/m² | - |
| 1777665061 | 19.44° C | 42% | 1011.9 hPa | 0 mm | - | 773 W/m² | - |
| 1777664757 | 18.89° C | 44% | 1012.1 hPa | 0 mm | - | 766 W/m² | - |
| 1777664453 | 18.89° C | 44% | 1011.8 hPa | 0 mm | - | 799 W/m² | - |
| 1777664151 | 18.89° C | 44% | 1011.9 hPa | 0 mm | - | 792 W/m² | - |
| 1777663849 | 18.33° C | 45% | 1011.7 hPa | 0 mm | - | 828 W/m² | - |
| 1777663545 | 18.89° C | 44% | 1012.1 hPa | 0 mm | - | 822 W/m² | - |
* Rain latest hour (hover to see other rain measurements)
** Current wind speed in m/s (hover to see current wind gust speed)